Flag for Moldova Weather past 2 weeks in Bălți, Moldova

Now
75 °F

Thundershowers. Partly sunny.


Feels Like: 77 °F
Forecast: 59 / 87 °F
Wind: 16 mph from East

Location: Baltsi-Leadoveni - The North of Moldova

Current Time: Jul 23, 2014 at 5:21:59 PM

Latest Report: Jul 23, 2014 at 4:30 PM


Visibility: N/A

Pressure: 29.77 "Hg

Humidity: 65%

Dew point: 63 °F

Location of BălțiLocation

Historic Weather in Bălți — Graph

°F

Bălți temperature yesterday

Maximum temperature yesterday: 72 °F (at 10:00 AM)
Minimum temperature yesterday: 66 °F (at 3:00 AM)
Average temperature yesterday: 69 °F

Past Weeks' High & Low Weather Summary

 TemperatureHumidityPressure
High84 °F (Jul 8, 4:00 PM)100% (Jul 9, 1:00 PM)30.04 "Hg (Jul 9, 1:00 PM)
Low59 °F (Jul 13, 1:00 AM)33% (Jul 8, 4:00 PM)29.56 "Hg (Jul 11, 4:30 PM)
Average70 °F74%29.87 "Hg
* Reported Jul 8 4:00 PM — Jul 23 4:00 PM, Bălți, Weather by CustomWeather, © 2014

Note: Actual official high and low records may vary slightly from our data, if they occured in-between our weather recording intervals... More about our weather records

Advertising

Bălți weather history for previous 24 hours

 ConditionsComfort  
Time TempWeatherWind HumidityBarometerVisibility
4:00 PM
Jul 23
72 °FThundershowers. Broken clouds.15 mph78%29.77 "HgN/A
3:30 PM77 °FThundershowers. Partly sunny.17 mph65%29.80 "HgN/A
3:00 PM77 °FThundershowers. Partly sunny.16 mph61%29.80 "HgN/A
2:30 PM75 °FThundershowers. Scattered clouds.13 mph69%29.80 "HgN/A
2:00 PM77 °FScattered clouds.14 mph65%29.83 "HgN/A
1:00 PM73 °FPassing clouds.13 mph74%29.83 "HgN/A
12:30 PM75 °FPassing clouds.16 mph69%29.83 "HgN/A
12:00 PM73 °FPassing clouds.15 mph74%29.83 "HgN/A
9:00 AM64 °FScattered clouds.16 mph94%29.86 "HgN/A
8:00 AM63 °FMild.17 mph100%29.86 "HgN/A
7:30 AM63 °FMild.15 mph100%29.86 "HgN/A
7:00 AM63 °FMild.14 mph94%29.86 "Hg6 mi
6:30 AM63 °FMild.13 mph94%29.86 "HgN/A
6:00 AM63 °FMild.10 mph100%29.86 "Hg4 mi
5:30 AM63 °FMild.10 mph94%29.89 "HgN/A
5:00 AM63 °FMild.12 mph100%29.89 "Hg4 mi
4:30 AM63 °FMild.13 mph100%29.86 "Hg3 mi
4:00 AM63 °FMild.13 mph100%29.89 "Hg2 mi
3:30 AM63 °FMild.13 mph100%29.86 "Hg2 mi
3:00 AM63 °FMild.9 mph100%29.89 "Hg1 mi
8:00 PM
Jul 22
66 °FMild.8 mph94%29.89 "Hg5 mi
7:30 PM66 °FMild.7 mph94%29.89 "HgN/A
7:00 PM66 °FMild.7 mph94%29.89 "HgN/A
6:30 PM66 °FMild.6 mph94%29.89 "HgN/A
6:00 PM66 °FMild.6 mph94%29.89 "HgN/A
5:30 PM66 °FMild.6 mph88%29.89 "HgN/A
5:00 PM66 °FMild.8 mph94%29.89 "HgN/A
Weather by CustomWeather, © 2014

See weather overviewHow to use our weather pages